Fort Indiantown Gap, PA

3:55 PM EDT on May 20, 2018 (GMT -0400)
Muir Army Air Field

Weather History for KMUI - September, 2012

Change the Weather History Date:

Thursday, September 27, 2012

  Actual Average Record
Temperature  
Mean Temperature 66 °F -  
Max Temperature 72 °F 67 °F 90 °F (2017)
Min Temperature 60 °F 51 °F 41 °F (2000)
Growing Degree Days 16 (Base 50)    
Moisture  
Dew Point 62 °F    
Average Humidity 89    
Maximum Humidity 100    
Minimum Humidity 67    
Precipitation  
Precipitation 0.34 in - - ()
Sea Level Pressure  
Sea Level Pressure 30.15 in    
Wind  
Wind Speed 2 mph (NNW)    
Max Wind Speed 8 mph    
Max Gust Speed -    
Visibility 9 miles    
Events Rain    
Averages and records for this station are not official NWS values.
T = Trace of Precipitation, MM = Missing Value Source: NWS Daily Summary

Daily Weather History Graph

Daily Weather History Graph

Search for Another Location

Airport or City:

Astronomy

Sep. 27, 2012 Rise Set
Actual Time 6:59 AM EDT 6:54 PM EDT
Civil Twilight 6:32 AM EDT 7:21 PM EDT
Nautical Twilight 6:00 AM EDT 7:53 PM EDT
Astronomical Twilight 5:28 AM EDT 8:25 PM EDT
Moon 5:24 PM EDT (9/27) 4:25 AM EDT (9/27)
Length of Visible Light 12h 49m
Length of Day
11h 55m
Waxing Gibbous, 94% of the Moon is Illuminated
Sep 27
Waxing Gibbous
Sep 29
Full
Oct 8
Last Quarter
Oct 15
New
Oct 21
First Quarter

Hourly Weather History & Observations

Time (EDT) Temp. Dew Point Humidity Pressure Visibility Wind Dir Wind Speed Gust Speed Precip Events Conditions
12:55 AM 61.9 °F 60.4 °F 95% 30.09 in 10.0 mi Calm Calm - N/A   Overcast
1:55 AM 61.5 °F 61.0 °F 98% 30.09 in 10.0 mi Calm Calm - N/A   Overcast
2:19 AM 60.8 °F 60.8 °F 100% 30.09 in 10.0 mi Calm Calm - N/A   Light Drizzle
2:55 AM 62.8 °F 61.7 °F 96% 30.10 in 10.0 mi SW 4.6 mph - 0.00 in Rain Light Rain
3:55 AM 64.9 °F 61.5 °F 89% 30.11 in 10.0 mi South 3.5 mph - 0.08 in   Light Drizzle
4:04 AM 64.4 °F 62.6 °F 94% 30.11 in 10.0 mi South 4.6 mph - N/A   Mostly Cloudy
4:11 AM 62.6 °F 62.6 °F 100% 30.11 in 10.0 mi South 6.9 mph - N/A Rain Light Rain
4:55 AM 63.5 °F 62.6 °F 97% 30.13 in 4.0 mi SW 3.5 mph - 0.09 in Rain Rain
5:55 AM 63.0 °F 62.8 °F 99% 30.14 in 7.0 mi Calm Calm - 0.07 in Rain Light Rain
6:38 AM 62.6 °F 62.6 °F 100% 30.13 in 5.0 mi South 5.8 mph - N/A   Light Drizzle
6:47 AM 62.6 °F 62.6 °F 100% 30.14 in 5.0 mi Calm Calm - N/A   Drizzle
6:55 AM 63.0 °F 62.6 °F 99% 30.15 in 5.0 mi WSW 3.5 mph - 0.03 in   Light Drizzle
6:58 AM 62.6 °F 62.6 °F 100% 30.15 in 5.0 mi WSW 5.8 mph - N/A   Light Drizzle
7:00 AM 62.6 °F 62.6 °F 100% 30.16 in 5.0 mi WSW 4.6 mph - N/A   Light Drizzle
7:27 AM 62.6 °F 62.6 °F 100% 30.15 in 5.0 mi Calm Calm - N/A   Overcast
7:36 AM 62.6 °F 62.6 °F 100% 30.14 in 6.0 mi Calm Calm - N/A   Overcast
7:37 AM 62.6 °F 62.6 °F 100% 30.15 in 6.0 mi Calm Calm - N/A   Overcast
7:45 AM 62.6 °F 62.6 °F 100% 30.14 in 2.5 mi ENE 3.5 mph - N/A   Mostly Cloudy
7:48 AM 62.6 °F 62.6 °F 100% 30.14 in 3.0 mi Calm Calm - N/A   Mostly Cloudy
7:55 AM 63.0 °F 62.6 °F 99% 30.15 in 3.0 mi Calm Calm - 0.01 in   Mostly Cloudy
8:50 AM 66.2 °F 62.6 °F 88% 30.17 in 10.0 mi NNW 3.5 mph - N/A   Overcast
8:55 AM 65.7 °F 62.2 °F 89% 30.17 in 10.0 mi Calm Calm - N/A   Overcast
9:01 AM 66.2 °F 62.6 °F 88% 30.16 in 10.0 mi NNW 8.1 mph - N/A   Mostly Cloudy
9:36 AM 66.2 °F 62.6 °F 88% 30.17 in 10.0 mi North 4.6 mph - N/A   Light Drizzle
9:45 AM 66.2 °F 62.6 °F 88% 30.17 in 10.0 mi Calm Calm - N/A   Scattered Clouds
9:49 AM 66.2 °F 62.6 °F 88% 30.17 in 10.0 mi Variable 3.5 mph - N/A   Light Drizzle
9:55 AM 66.9 °F 63.0 °F 87% 30.17 in 10.0 mi Variable 3.5 mph - 0.00 in   Light Drizzle
9:59 AM 66.2 °F 62.6 °F 88% 30.17 in 10.0 mi Variable 4.6 mph - N/A   Scattered Clouds
10:27 AM 68.0 °F 62.6 °F 83% 30.18 in 10.0 mi Calm Calm - N/A   Mostly Cloudy
10:40 AM 68.0 °F 62.6 °F 83% 30.18 in 10.0 mi ENE 4.6 mph - N/A   Mostly Cloudy
10:43 AM 68.0 °F 62.6 °F 83% 30.18 in 10.0 mi ENE 4.6 mph - N/A   Overcast
10:55 AM 68.2 °F 62.2 °F 81% 30.18 in 10.0 mi Calm Calm - 0.00 in   Overcast
11:20 AM 68.0 °F 62.6 °F 83% 30.19 in 10.0 mi Calm Calm - N/A   Light Drizzle
11:36 AM 68.0 °F 60.8 °F 78% 30.19 in 10.0 mi Calm Calm - N/A   Mostly Cloudy
11:55 AM 68.5 °F 62.2 °F 80% 30.19 in 10.0 mi Calm Calm - 0.00 in   Mostly Cloudy
12:10 PM 69.8 °F 60.8 °F 73% 30.19 in 10.0 mi Calm Calm - N/A   Overcast
12:49 PM 69.8 °F 60.8 °F 73% 30.18 in 10.0 mi NW 3.5 mph - N/A   Mostly Cloudy
12:55 PM 69.8 °F 61.2 °F 74% 30.18 in 10.0 mi Calm Calm - N/A   Mostly Cloudy
1:02 PM 69.8 °F 60.8 °F 73% 30.18 in 10.0 mi Calm Calm - N/A   Mostly Cloudy
1:23 PM 69.8 °F 62.6 °F 78% 30.17 in 10.0 mi Calm Calm - N/A   Mostly Cloudy
1:43 PM 71.6 °F 60.8 °F 69% 30.16 in 10.0 mi Calm Calm - N/A   Mostly Cloudy
1:55 PM 71.2 °F 61.0 °F 70% 30.16 in 10.0 mi Calm Calm - N/A   Scattered Clouds
2:55 PM 71.8 °F 60.4 °F 67% 30.14 in 10.0 mi Calm Calm - N/A   Mostly Cloudy
3:53 PM 71.6 °F 60.8 °F 69% 30.13 in 10.0 mi ENE 4.6 mph - N/A   Light Drizzle
3:55 PM 71.2 °F 60.1 °F 68% 30.13 in 10.0 mi Calm Calm - 0.00 in   Light Drizzle
3:57 PM 71.6 °F 60.8 °F 69% 30.13 in 10.0 mi Calm Calm - N/A   Mostly Cloudy
4:55 PM 70.0 °F 61.7 °F 75% 30.14 in 10.0 mi Calm Calm - 0.00 in   Mostly Cloudy
5:55 PM 68.9 °F 61.5 °F 77% 30.13 in 10.0 mi Calm Calm - N/A   Overcast
6:55 PM 66.9 °F 62.4 °F 85% 30.14 in 10.0 mi Calm Calm - N/A   Mostly Cloudy
7:07 PM 66.2 °F 62.6 °F 88% 30.14 in 10.0 mi Calm Calm - N/A   Mostly Cloudy
7:11 PM 66.2 °F 60.8 °F 83% 30.14 in 10.0 mi Calm Calm - N/A   Mostly Cloudy
7:16 PM 66.2 °F 60.8 °F 83% 30.14 in 10.0 mi Calm Calm - N/A   Light Drizzle
7:54 PM 64.4 °F 62.6 °F 94% 30.14 in 8.0 mi North 3.5 mph - N/A Rain Light Rain
7:55 PM 64.6 °F 63.3 °F 96% 30.14 in 8.0 mi Calm Calm - 0.02 in Rain Light Rain
8:04 PM 64.4 °F 62.6 °F 94% 30.14 in 8.0 mi Calm Calm - N/A Rain Light Rain
8:13 PM 64.4 °F 62.6 °F 94% 30.13 in 8.0 mi Calm Calm - N/A   Scattered Clouds
8:49 PM 64.4 °F 62.6 °F 94% 30.14 in 10.0 mi Calm Calm - N/A   Light Drizzle
8:55 PM 64.2 °F 62.2 °F 93% 30.14 in 10.0 mi Calm Calm - 0.00 in   Light Drizzle
9:29 PM 64.4 °F 62.6 °F 94% 30.14 in 9.0 mi Calm Calm - N/A   Overcast
9:43 PM 64.4 °F 62.6 °F 94% 30.13 in 8.0 mi NE 3.5 mph - N/A Rain Light Rain
9:55 PM 63.7 °F 62.8 °F 97% 30.13 in 7.0 mi Calm Calm - 0.02 in Rain Light Rain
10:02 PM 64.4 °F 62.6 °F 94% 30.13 in 10.0 mi Calm Calm - N/A   Overcast
10:35 PM 64.4 °F 62.6 °F 94% 30.13 in 10.0 mi ENE 3.5 mph - N/A   Light Drizzle
10:55 PM 63.3 °F 62.2 °F 96% 30.12 in 9.0 mi Calm Calm - 0.00 in   Light Drizzle
11:41 PM 62.6 °F 62.6 °F 100% 30.11 in 6.0 mi NNE 4.6 mph - N/A   Mostly Cloudy
11:55 PM 63.0 °F 62.4 °F 98% 30.11 in 6.0 mi Calm Calm - 0.02 in   Mostly Cloudy